#timestamp,LO_Frequency,Hit,StdDev 
1620658815.2,286046998.5,N
1620658835.0,286046998.4,N
1620658835.9,286046998.4,N
1620658855.8,286047000.9,N
1620658875.6,286046998.9,N
1620658895.5,286046998.3,N
1620658915.3,286046998.4,N
1620658935.1,286046998.4,N
1620658955.9,286046996.8,N
1620658975.7,286046996.9,N
1620658995.5,286046999.2,N
1620659015.4,286046996.7,N
1620659035.2,286046999.2,N
1620659055.1,286046998.2,N
1620659056.0,286046998.2,N
1620659075.8,286046998.9,N
1620659095.6,286046998.3,N
1620659115.5,286047000.2,N
1620659135.3,286047001.0,N
1620659155.2,286046998.6,N
1620659175.9,286046999.8,N
1620659195.7,286046998.2,N
1620659215.6,286046999.0,N
1620659235.4,286047000.1,N
1620659255.2,286047000.4,N
1620659275.1,286047001.2,N
1620659276.0,286047001.2,N
1620659295.8,286047000.9,N
1620659315.7,286047000.6,N
1620659335.5,286047001.2,N
1620659355.3,286047000.8,N
1620659375.2,286046998.7,N
1620659395.0,286046998.6,N
1620659395.9,286046998.6,N
1620659415.8,286046999.9,N
1620659435.6,286047000.7,N
1620659455.4,286046998.4,N
1620659475.3,286046998.9,N
1620659495.1,286046998.7,N
1620659515.9,286046999.4,N
1620659535.7,286046999.1,N
1620659555.5,286046999.1,N
1620659575.4,286046998.5,N
1620659595.2,286046999.1,N
1620659615.0,286046998.1,N
1620659615.9,286046998.1,N
1620659635.8,286047000.0,N
1620659655.6,286047000.5,N
1620659675.5,286047000.8,N
1620659695.3,286047000.1,N
1620659715.1,286046999.9,N
1620659735.9,286047001.5,N
1620659755.7,286047000.7,N
1620659775.5,286047002.3,N
1620659795.4,286047001.5,N
1620659815.2,286047001.4,N
1620659835.1,286047003.6,Y
1620659836.0,286047003.6,P
1620659855.8,286047001.6,N
1620659875.6,286047011.9,P
1620659895.5,286047000.7,N
1620659915.3,286047001.7,N
1620659935.2,286047002.0,N
1620659955.9,286047002.2,N
1620659975.7,286047004.3,N
1620659995.6,286047002.1,N
1620660015.4,286047002.1,N
1620660035.3,286047002.1,N
1620660055.1,286047002.3,N
1620660056.0,286047002.3,N
1620660075.8,286046999.9,N
1620660095.7,286047000.0,N
1620660115.5,286047000.7,N
1620660135.3,286047002.7,N
1620660155.2,286047002.6,N
1620660175.0,286047002.8,N
1620660175.9,286047002.8,N
1620660195.8,286046999.9,N
1620660215.6,286047000.0,N
1620660235.4,286047001.2,N
1620660255.3,286047001.0,N
1620660275.1,286046999.7,N
1620660295.9,286046999.7,N
1620660315.7,286046999.7,N
1620660335.5,286047002.2,N
1620660355.4,286047002.2,N
1620660375.2,286047002.3,N
1620660395.0,286047000.2,N
1620660395.9,286047000.2,N
1620660415.8,286047002.7,N
1620660435.6,286047002.6,N
1620660455.5,286047000.1,N
1620660475.3,286047000.1,N
1620660495.1,286047002.7,N
1620660515.9,286047001.4,N
1620660535.7,286047002.2,N
1620660555.5,286047000.0,N
1620660575.4,286047003.5,N
1620660595.2,286047005.8,Y
1620660615.1,286047001.4,P
1620660616.0,286047001.4,P
1620660635.8,286047003.7,P
1620660655.6,286047004.4,Y
1620660675.5,286047002.8,P
1620660695.3,286047002.8,P
1620660715.2,286047002.7,P
1620660735.9,286046999.9,N
1620660755.7,286046998.2,N
1620660775.6,286046996.9,N
1620660795.4,286046997.4,N
1620660815.2,286046997.0,N
1620660835.1,286046997.2,N
1620660836.0,286046997.2,N
1620660855.8,286046997.7,N
1620660875.7,286046997.7,N
1620660895.5,286046996.5,N
1620660915.3,286046997.7,N
1620660935.2,286046997.4,N
1620660955.0,286046996.7,N
1620660955.9,286046996.7,N
1620660975.8,286046997.2,N
1620660995.6,286046996.7,N
1620661015.4,286046996.7,N
1620661035.3,286046999.0,N
1620661055.1,286046998.5,N
1620661075.8,286047000.4,N
1620661095.7,286047000.4,N
1620661115.5,286047000.6,N
1620661135.4,286046998.1,N
1620661155.2,286047000.1,N
1620661175.0,286047002.6,N
1620661175.9,286047002.6,N
1620661195.8,286047002.7,N
1620661215.6,286046999.7,N
1620661235.4,286047000.9,N
1620661255.3,286047002.4,N
1620661275.1,286047002.4,N
1620661295.9,286047001.5,N
1620661315.7,286047002.7,N
1620661335.5,286047001.5,N
1620661355.4,286047001.9,N
1620661375.2,286047002.5,N
1620661395.1,286047002.2,N
1620661396.0,286047002.2,N
1620661415.8,286047004.4,N
1620661435.6,286047001.6,N
1620661455.5,286047001.9,N
1620661475.3,286047002.2,N
1620661495.1,286047002.3,N
1620661515.9,286047003.6,N
1620661535.7,286047004.0,N
1620661555.6,286047000.1,N
1620661575.4,286047000.5,N
1620661595.2,286047000.7,N
1620661615.1,286047001.0,N
1620661616.0,286047001.0,N
1620661635.8,286047000.8,N
1620661655.6,286047001.2,N
1620661675.5,286046998.7,N
1620661695.3,286047001.0,N
1620661715.2,286047000.0,N
1620661735.9,286046999.8,N
1620661755.7,286047002.0,N
1620661775.6,286047002.7,N
1620661795.4,286047001.1,N
1620661815.3,286046998.1,N
1620661835.1,286046998.3,N
1620661836.0,286046998.3,N
1620661855.8,286046998.5,N
1620661875.7,286046998.3,N
1620661895.5,286046999.2,N
1620661915.3,286046998.5,N
1620661935.2,286047000.0,N
1620661955.0,286046998.1,N
1620661955.9,286046998.1,N
1620661975.8,286046998.7,N
1620661995.6,286046998.1,N
1620662015.4,286047000.9,N
1620662035.3,286047000.0,N
1620662055.1,286046998.1,N
1620662075.9,286047001.1,N
1620662095.7,286047002.3,N
1620662115.5,286047002.2,N
1620662135.4,286047000.4,N
1620662155.2,286047002.6,N
1620662175.0,286047001.9,N
1620662175.9,286047001.9,N
1620662195.8,286047002.4,N
1620662215.6,286047002.5,N
1620662235.5,286047002.2,N
1620662255.3,286047001.8,N
1620662275.1,286046999.8,N
1620662295.9,286047004.3,N
1620662315.7,286047003.8,N
1620662335.5,286047002.3,N
1620662355.4,286047002.3,N
1620662375.2,286047003.9,N
1620662395.1,286047004.3,N
1620662396.0,286047004.3,N
